[[{"header":{"parameterUnit":"m.s-1","parameterCategory":1,"la1":30.2991,"la2":30.254,"lo1":-89.0895,"lo2":-89.0444,"dy":0.0017,"dx":0.0017,"nx":28,"ny":28,"refTime":"2025-04-15T21:00:00:Z","depth":0,"parameterNumber":2,"parameterNumberName":"U-component_of_WINDS"},"data":[0,0,0,0,0,0,0,0,0,0,0,0,0,0,0,0,0,0,0,0,0,0,0,0,0,0,0,0,0,0,0,0,0,0,0,0,0,0,0,0,0,0,0,0,0,0,0,0,0,0,0,0,0,0,0,0,0,0,-3.5581,-3.5581,0,-3.565,-3.565,-3.5651,-3.5635,-3.5634,-3.5632,-3.5631,-3.5701,-3.5704,-3.5707,0,0,0,0,0,0,0,0,0,0,0,0,0,-3.5435,-3.5438,-3.558,-3.5581,-3.5582,-3.5649,-3.565,-3.5651,-3.5635,-3.5634,-3.5632,-3.5631,-3.57,-3.5703,-3.5707,0,0,0,0,0,0,0,0,0,0,0,0,0,-3.55,-3.5439,-3.558,-3.5582,-3.5583,-3.5649,-3.565,-3.5652,-3.5636,-3.5634,-3.5632,-3.563,-3.5698,-3.5703,-3.5707,-3.5775,0,0,-3.5722,-3.5724,0,0,0,0,0,0,0,0,-3.5497,-3.5506,-3.5581,-3.5582,-3.5583,-3.5632,-3.5624,-3.5693,-3.5636,-3.5616,-3.5631,-3.5629,-3.5679,-3.5685,-3.5703,-3.5778,-3.5781,-3.5722,-3.5725,-3.5727,-3.5728,0,0,0,0,0,0,0,-3.5492,-3.5503,-3.5608,-3.5582,-3.5584,-3.558,-3.5587,-3.5637,-3.5658,-3.5617,-3.5616,-3.5625,-3.5679,-3.5698,-3.5704,-3.5782,-3.5722,-3.5726,-3.5729,-3.5731,-3.5919,-3.5921,0,0,0,0,0,0,-3.5487,-3.5499,-3.5605,-3.561,-3.5534,-3.5584,-3.5592,-3.5618,-3.5657,-3.5661,-3.5626,-3.5624,-3.5691,-3.5699,-3.5706,-3.5789,-3.5727,-3.5731,-3.5734,-3.5917,-3.592,-3.5922,0,0,0,0,0,0,-3.5484,-3.5496,-3.5603,-3.5554,-3.5567,-3.5589,-3.5618,-3.5621,-3.5639,-3.5664,-3.5667,-3.5642,-3.569,-3.57,-3.5759,-3.5791,-3.5733,-3.5737,-3.5914,-3.5918,-3.5921,-3.5954,0,0,0,0,0,0,-3.548,-3.5495,-3.5521,-3.5555,-3.557,-3.5654,-3.562,-3.5623,-3.5647,-3.5645,-3.5679,-3.5683,-3.5689,-3.5752,-3.5763,-3.5796,-3.5741,-3.5912,-3.5916,-3.592,-3.595,-3.5958,-3.5965,0,0,0,0,0,-3.5474,-3.5527,-3.5523,-3.5535,-3.5603,-3.5656,-3.5664,-3.5671,-3.565,-3.5676,-3.5693,-3.5682,-3.5786,-3.5758,-3.5771,-3.5806,-3.5909,-3.5915,-3.592,-3.5947,-3.5957,-3.5965,0,0,0,0,0,0,-3.5495,-3.5531,-3.5527,-3.5592,-3.5621,-3.5653,-3.5686,-3.5681,-3.5716,-3.5711,-3.5718,-3.5726,-3.5786,-3.5802,-3.577,-3.5874,-3.5845,-3.5853,-3.5861,-3.5871,-3.5878,-3.5872,-3.5745,0,0,0,0,0,-3.5508,-3.5548,-3.5577,-3.5632,-3.5647,-3.5664,-3.5687,-3.569,-3.572,-3.5732,-3.5753,-3.5782,-3.5822,-3.5847,-3.5885,-3.5953,-3.5961,-3.5984,-3.5991,-3.5997,-3.6003,-3.6042,-3.6053,-3.5939,-3.5939,-3.5939,0,0,-3.5533,-3.5558,-3.5583,-3.5637,-3.566,-3.5701,-3.5674,-3.5719,-3.575,-3.5739,-3.5796,-3.5812,-3.5846,-3.591,-3.5939,-3.5925,-3.6037,-3.6004,-3.6008,-3.6011,-3.6048,-3.6059,-3.6068,-3.5942,-3.5942,-3.5941,0,0,-3.5601,-3.5624,-3.5672,-3.5696,-3.5732,-3.5743,-3.5755,-3.5789,-3.5799,-3.5857,-3.585,-3.5887,-3.5954,-3.5979,-3.6,-3.608,-3.6072,-3.6092,-3.6131,-3.6168,-3.6177,-3.6185,-3.6214,-3.6224,-3.6099,-3.6099,-3.6099,0,-3.5628,-3.569,-3.5698,-3.5744,-3.5768,-3.5761,-3.5811,-3.5834,-3.5879,-3.5896,-3.588,-3.5966,-3.5988,-3.6059,-3.6079,-3.6096,-3.611,-3.6088,-3.6175,-3.6183,-3.6191,-3.6218,-3.6229,-3.6101,-3.6101,-3.6101,-3.6101,0,-3.5722,-3.5766,-3.5801,-3.5846,-3.5875,-3.5922,-3.5937,-3.5965,-3.5966,-3.598,-3.6039,-3.6066,-3.6109,-3.6126,-3.6127,-3.6197,-3.6188,-3.6174,-3.6144,-3.6204,-3.623,-3.624,-3.6104,-3.6104,-3.6103,-3.6102,0,0,-3.5802,-3.5853,-3.5866,-3.5887,-3.5927,-3.5961,-3.6009,-3.6052,-3.6076,-3.6109,-3.6149,-3.6208,-3.6196,-3.622,-3.6224,-3.6257,-3.632,-3.6239,-3.624,-3.6253,-3.6399,-3.6409,-3.6421,-3.6315,-3.6317,-3.6319,-3.6396,0,-3.5873,-3.5958,-3.5967,-3.6043,-3.6083,-3.6079,-3.6121,-3.615,-3.6165,-3.6202,-3.6218,-3.6259,-3.624,-3.6255,-3.6287,-3.6305,-3.6349,-3.63,-3.6353,-3.6354,-3.6343,-3.6435,-3.6445,-3.6516,-3.6407,-3.6408,-3.641,0,-3.5967,-3.6003,-3.6083,-3.6119,-3.6136,-3.6174,-3.6215,-3.6251,-3.6284,-3.6293,-3.6321,-3.6322,-3.6372,-3.6342,-3.6411,-3.6377,-3.64,-3.6412,-3.6415,-3.6419,-3.6385,-3.6441,-3.6539,-3.655,-3.6426,-3.6424,-3.6423,0,-3.6017,-3.6087,-3.6144,-3.6162,-3.6205,-3.6232,-3.6251,-3.6283,-3.6309,-3.6345,-3.6363,-3.6404,-3.6427,-3.6459,-3.6471,-3.6448,-3.654,-3.6511,-3.6549,-3.6548,-3.6567,-3.6565,-3.667,-3.6583,-3.6583,-3.6583,-3.6582,0,-3.6095,-3.6144,-3.6167,-3.6202,-3.6257,-3.6268,-3.6322,-3.634,-3.6369,-3.6408,-3.6407,-3.6443,-3.6457,-3.6496,-3.6506,-3.6562,-3.6573,-3.6581,-3.6583,-3.658,-3.6579,-3.6594,-3.6589,-3.6585,-3.6585,-3.6584,-3.6584,0,-3.616,-3.6177,-3.6239,-3.6276,-3.6287,-3.6326,-3.6357,-3.6391,-3.6406,-3.6455,-3.6468,-3.6491,-3.6537,-3.6553,-3.6608,-3.6615,-3.668,-3.6678,-3.6669,-3.6669,-3.6706,-3.6702,-3.6823,-3.6839,-3.6742,-3.6743,-3.6744,0,-3.6208,-3.6246,-3.6287,-3.6313,-3.6334,-3.6376,-3.6403,-3.6416,-3.6444,-3.6487,-3.6516,-3.6562,-3.6599,-3.6673,-3.6695,-3.6738,-3.6737,-3.6776,-3.6743,-3.674,-3.6737,-3.6734,-3.6738,-3.6782,-3.6783,-3.6784,-3.6784,0,-3.6291,-3.6298,-3.6338,-3.6381,-3.6414,-3.6448,-3.6481,-3.6503,-3.6521,-3.6553,-3.6601,-3.663,-3.6687,-3.6733,-3.6777,-3.6797,-3.6794,-3.6795,-3.6806,-3.6803,-3.6797,-3.6801,-3.6685,-3.6792,-3.6791,-3.679,-3.679,-3.679,-3.6349,-3.6383,-3.6418,-3.6462,-3.6489,-3.6521,-3.6555,-3.6575,-3.6615,-3.6663,-3.6669,-3.672,-3.6755,-3.6814,-3.6836,-3.6877,-3.6866,-3.6881,-3.6885,-3.6889,-3.6892,-3.6791,-3.6885,-3.6885,-3.6885,-3.6884,-3.6884,0,-3.6432,-3.6455,-3.6496,-3.6543,-3.6578,-3.6574,-3.6611,-3.664,-3.6686,-3.6719,-3.6756,-3.6811,-3.6856,-3.6883,-3.6928,-3.6956,-3.6955,-3.6967,-3.6964,-3.6969,-3.6899,-3.6885,-3.6966,-3.6966,-3.6966,-3.6966,-3.6966,-3.6966,-3.6479,-3.6536,-3.6548,-3.6619,-3.6642,-3.6693,-3.6714,-3.6744,-3.677,-3.6832,-3.687,-3.6888,-3.6918,-3.6966,-3.7008,-3.7014,-3.7031,-3.7044,-3.7049,-3.6983,-3.6974,-3.6966,-3.6953,-3.7047,-3.7047,-3.7116,-3.7117,-3.7117]},{"header":{"parameterUnit":"m.s-1","parameterCategory":1,"la1":30.2991,"la2":30.254,"lo1":-89.0895,"lo2":-89.0444,"dy":0.0017,"dx":0.0017,"nx":28,"ny":28,"refTime":"2025-04-15T21:00:00:Z","depth":0,"parameterNumber":3,"parameterNumberName":"V-component_of_WINDS"},"data":[0,0,0,0,0,0,0,0,0,0,0,0,0,0,0,0,0,0,0,0,0,0,0,0,0,0,0,0,0,0,0,0,0,0,0,0,0,0,0,0,0,0,0,0,0,0,0,0,0,0,0,0,0,0,0,0,0,0,2.7752,2.7751,0,2.7613,2.7612,2.761,2.7547,2.7547,2.7547,2.7547,2.7398,2.7394,2.739,0,0,0,0,0,0,0,0,0,0,0,0,0,2.7958,2.7955,2.7753,2.7751,2.7749,2.7614,2.7612,2.761,2.7547,2.7547,2.7547,2.7547,2.7399,2.7394,2.7389,0,0,0,0,0,0,0,0,0,0,0,0,0,2.7849,2.7954,2.7753,2.7701,2.7695,2.7614,2.7612,2.7609,2.7547,2.7547,2.7547,2.7547,2.7401,2.7395,2.7389,2.7346,0,0,2.737,2.7367,0,0,0,0,0,0,0,0,2.7855,2.7841,2.7711,2.7705,2.7698,2.7598,2.7629,2.7521,2.7547,2.7603,2.7547,2.7547,2.7464,2.7452,2.7425,2.7339,2.7332,2.7369,2.7365,2.7363,2.7361,0,0,0,0,0,0,0,2.7863,2.7847,2.7697,2.7709,2.7701,2.7684,2.7668,2.7609,2.7533,2.7598,2.7593,2.7578,2.746,2.7432,2.7422,2.733,2.7369,2.7364,2.736,2.7358,2.7203,2.7202,0,0,0,0,0,0,2.788,2.7854,2.7702,2.7693,2.7779,2.768,2.7663,2.763,2.7534,2.752,2.7578,2.7575,2.7442,2.7429,2.7416,2.736,2.7363,2.7357,2.7354,2.7203,2.7203,2.7202,0,0,0,0,0,0,2.7884,2.7867,2.7707,2.7772,2.7751,2.7676,2.7639,2.7627,2.7598,2.7519,2.7504,2.7563,2.7442,2.7425,2.7365,2.7354,2.7354,2.7349,2.7204,2.7203,2.7202,2.7248,0,0,0,0,0,0,2.7891,2.7869,2.7853,2.7772,2.7747,2.766,2.7639,2.7624,2.7588,2.7584,2.7501,2.7487,2.7441,2.7374,2.7358,2.7346,2.7344,2.7204,2.7203,2.7203,2.7247,2.7249,2.7251,0,0,0,0,0,2.7898,2.7869,2.7852,2.7834,2.7726,2.7659,2.7645,2.7594,2.7588,2.757,2.752,2.749,2.7358,2.7369,2.735,2.7335,2.7204,2.7203,2.7203,2.7246,2.7249,2.7251,0,0,0,0,0,0,2.7947,2.7858,2.7838,2.7783,2.773,2.7649,2.7625,2.7598,2.7543,2.7541,2.7478,2.7459,2.7405,2.7364,2.7377,2.729,2.7279,2.7274,2.7318,2.732,2.7322,2.7332,2.7339,0,0,0,0,0,2.7953,2.7908,2.7831,2.7789,2.7764,2.77,2.7668,2.7634,2.7576,2.7552,2.7497,2.7439,2.7385,2.735,2.7296,2.7242,2.7222,2.7222,2.7224,2.7226,2.7222,2.7191,2.7191,2.7199,2.7199,2.7199,0,0,2.7961,2.7907,2.7882,2.7798,2.7753,2.7707,2.7681,2.7632,2.7597,2.7543,2.7484,2.7442,2.7374,2.7317,2.7289,2.7281,2.7216,2.7225,2.7227,2.7222,2.719,2.719,2.7189,2.7198,2.7199,2.7199,0,0,2.7953,2.7908,2.7869,2.7825,2.7758,2.7716,2.7707,2.7631,2.7602,2.7542,2.7502,2.7458,2.7365,2.7319,2.7283,2.7261,2.7231,2.7245,2.7254,2.7224,2.7224,2.7223,2.7215,2.7213,2.7242,2.7242,2.7242,0,2.7972,2.7902,2.7852,2.7807,2.7771,2.7724,2.7684,2.7643,2.7561,2.7536,2.753,2.7415,2.7365,2.7297,2.7292,2.7265,2.7252,2.7253,2.7228,2.7227,2.7225,2.7217,2.7214,2.7244,2.7244,2.7243,2.7243,0,2.7928,2.7881,2.7857,2.7782,2.7744,2.7701,2.7644,2.7611,2.7581,2.7539,2.7478,2.7418,2.7351,2.7333,2.7301,2.7261,2.7258,2.7241,2.7228,2.7227,2.7218,2.7215,2.7247,2.7246,2.7246,2.7245,0,0,2.7945,2.7846,2.7838,2.7804,2.7728,2.7689,2.7645,2.7582,2.7555,2.75,2.7461,2.7385,2.737,2.7329,2.7292,2.7267,2.7254,2.7252,2.725,2.7254,2.7205,2.7218,2.7215,2.7235,2.7234,2.7233,2.7211,0,2.7926,2.7847,2.7801,2.7739,2.7695,2.7651,2.7612,2.7561,2.7521,2.7476,2.7431,2.7379,2.7362,2.7338,2.7311,2.7261,2.7243,2.7262,2.7195,2.7193,2.7213,2.721,2.7223,2.7205,2.7207,2.7206,2.7206,0,2.7893,2.7843,2.7778,2.7709,2.7688,2.7655,2.7594,2.7553,2.7493,2.7466,2.7423,2.7387,2.7337,2.7331,2.726,2.7275,2.7245,2.7217,2.7215,2.7205,2.7199,2.72,2.7198,2.7195,2.72,2.72,2.7201,0,2.7912,2.7828,2.7778,2.7751,2.7669,2.7646,2.7611,2.7552,2.7518,2.7465,2.7442,2.7383,2.735,2.7305,2.7254,2.7254,2.7189,2.7178,2.7164,2.7165,2.7151,2.7152,2.7143,2.7133,2.7133,2.7134,2.7134,0,2.7896,2.7857,2.7786,2.7755,2.7711,2.766,2.7616,2.7577,2.7526,2.7486,2.7444,2.7407,2.7342,2.7297,2.7256,2.7205,2.719,2.7166,2.7155,2.7169,2.7172,2.7147,2.7147,2.7133,2.7133,2.7133,2.7133,0,2.7908,2.7859,2.7802,2.7731,2.7712,2.7683,2.7621,2.7589,2.7548,2.7498,2.7483,2.7419,2.7364,2.7309,2.7234,2.7207,2.7155,2.7141,2.7176,2.717,2.7159,2.7161,2.7133,2.7127,2.7123,2.7123,2.7123,0,2.79,2.7871,2.7797,2.7769,2.7735,2.769,2.7656,2.7604,2.757,2.7502,2.7478,2.742,2.7371,2.7285,2.723,2.7172,2.7156,2.7151,2.7147,2.7162,2.7156,2.7158,2.7154,2.7152,2.7152,2.7152,2.7153,0,2.7892,2.787,2.7824,2.777,2.7731,2.7685,2.7638,2.7617,2.7555,2.7519,2.7464,2.7426,2.7351,2.7294,2.7231,2.7192,2.7162,2.7155,2.7148,2.7161,2.7183,2.7171,2.718,2.7155,2.7155,2.7155,2.7154,2.7154,2.7893,2.7865,2.781,2.776,2.772,2.7678,2.7645,2.7602,2.7555,2.7492,2.7464,2.7408,2.735,2.7263,2.7225,2.718,2.7172,2.7162,2.716,2.7158,2.7162,2.7192,2.7168,2.7168,2.7168,2.7167,2.7167,0,2.7882,2.7846,2.7801,2.7738,2.7699,2.7677,2.7624,2.7592,2.7544,2.7494,2.7448,2.7385,2.733,2.7273,2.7214,2.7189,2.7174,2.7175,2.7176,2.7167,2.7172,2.7183,2.7189,2.7189,2.7189,2.7189,2.7189,2.7189,2.7872,2.7824,2.7796,2.7727,2.7689,2.7637,2.7608,2.7569,2.7529,2.7461,2.7416,2.738,2.7327,2.7265,2.7213,2.7198,2.7178,2.7183,2.7163,2.7168,2.7167,2.7166,2.7176,2.718,2.718,2.7162,2.7162,2.7162]}]]